Regional Weather Roundup
Issued by NWS

Home | Current Version | Previous Version | Graphics & Text | Print | Product List | Glossary On
Versions: 1 2 3 4 5 6 7 8 9 10 11 12 13 14 15 16 17 18 19 20 21 22 23 24 25 26 27 28 29 30 31 32 33 34 35 36 37 38 39 40 41 42 43 44 45 46 47 48 49 50
991
ASUS43 KDTX 311001
RWRMI
MICHIGAN HOURLY REGIONAL WEATHER ROUNDUP
NATIONAL WEATHER SERVICE DETROIT/PONTIAC MI
600 AM EDT TUE MAY 31 2016

NOTE: "FAIR" INDICATES FEW OR NO CLOUDS BELOW 12,000 FEET WITH NO
SIGNIFICANT WEATHER AND/OR OBSTRUCTION TO VISIBILITY.

MIZ047>049-052>055-059>063-066>070-074>076-081>083-311100-
SOUTHEAST LOWER MICHIGAN

CITY           SKY/WX    TMP DP  RH WIND       PRES   REMARKS
ADRIAN         CLEAR     58  51  78 CALM      30.02R
ALMA           CLEAR     47  47  97 CALM      30.03S
ANN ARBOR      CLEAR     51  49  92 CALM      30.01R
BAD AXE          N/A     48  48 100 CALM      30.03R FOG
CARO             N/A     47  46  97 CALM      30.02R FOG
DETROIT CITY   CLEAR     62  52  69 N5        30.00S
DETROIT        PTCLDY    62  51  67 N5        30.01R
FLINT          CLEAR     54  49  83 CALM      30.03R
GROSSE ILE     CLEAR     61  54  77 CALM      29.99R
HILLSDALE      CLEAR     57  51  81 CALM      30.02S
HOWELL         CLEAR     53  50  90 CALM      30.02S

CITY           SKY/WX    TMP DP  RH WIND       PRES   REMARKS
JACKSON        CLEAR     53  52  96 CALM      30.02R
LAMBERTVILLE   CLEAR     56  52  86 CALM      30.00S
LANSING        CLEAR     53  51  93 CALM      30.03S
LAPEER         FAIR      52  51  97 CALM      30.03R
MASON          CLEAR     54  52  94 S5        30.03R
MONROE         PTCLDY    56  53  87 NW3       30.00R
MT. CLEMENS    CLEAR     57  53  88 N3        29.99S
PONTIAC        PTCLDY    55  50  83 N3        30.01S
PORT HOPE        N/A     55  54  96 W3        30.01R
PORT HURON     CLEAR     54  54 100 CALM      30.02R
TRI CITIES     CLEAR     56  50  80 N3        30.03S
MIDLAND        FAIR      48  48  99 CALM      30.03S
TROY           CLEAR     64  51  62 CALM      30.02F
SAGINAW HB     CLEAR     55  48  76 CALM      30.01S
$$
MIZ043>046-050>051-056>058-064>065-071>073-077>080-311100-
SOUTHWEST LOWER MICHIGAN

CITY           SKY/WX    TMP DP  RH WIND       PRES   REMARKS
BATTLE CREEK   CLEAR     57  54  89 CALM      30.03R
BENTON HARBOR  CLOUDY    57  53  86 E3        30.00R
BIG RAPIDS     CLEAR     51  50  97 CALM      30.04S
COLDWATER      PTCLDY    56  56  97 CALM      30.02R
FREMONT        FAIR      53  53 100 CALM      30.01S
HOLLAND        CLEAR     55  53  93 CALM      30.02R
GRAND RAPIDS   PTCLDY    57  53  86 CALM      30.02S
IONIA          FAIR      54  52  95 CALM      30.02S
KALAMAZOO      CLOUDY    57  53  86 N3        30.03R
LUDINGTON      PTCLDY    51  51 100 NE5       30.03S FOG
MARSHALL       CLOUDY    55  54  97 CALM      30.02R
MOUNT PLEASANT CLEAR     51  50  96 CALM      30.03S
MUSKEGON       PTCLDY    57  54  89 CALM      30.01S
SOUTH HAVEN    CLOUDY    56  55  96 CALM      30.00S
$$
MIZ016>042-311100-
NORTHERN LOWER MICHIGAN

CITY           SKY/WX    TMP DP  RH WIND       PRES   REMARKS
ALPENA         PTCLDY    52  49  89 NW3       30.04R
BEAVER ISLAND  CLOUDY    47  43  85 CALM      30.07S
BELLAIRE       CLOUDY    48  47  95 CALM      30.05S
CADILLAC       CLEAR     47  45  91 CALM      30.05S
CHARLEVOIX     MOCLDY    52  48  87 N8        30.09S
FRANKFORT      CLOUDY    54  52  94 S3        30.04R
GAYLORD        CLOUDY    49  46  90 CALM      30.05S
GRAYLING       CLOUDY    45  43  93 CALM      30.06R
HARBOR SPRINGS CLOUDY    50  47  90 N3        30.07R
HOUGHTON LAKE  CLEAR     49  47  93 CALM      30.05S FOG
OSCODA         CLEAR     52  48  87 CALM      30.02S
PELLSTON       PTCLDY    47  44  90 NW3       30.07R
ROGERS CITY    CLEAR     50  46  88 W3        30.06R
TRAVERSE CITY  CLOUDY    53  50  89 CALM      30.04S
$$
MIZ007>008-015-311100-
EASTERN UPPER MICHIGAN

CITY           SKY/WX    TMP DP  RH WIND       PRES   REMARKS
KINROSS          N/A     45  45 100 NW9       30.06R
MACKINAC ISLAN MOCLDY    46  46 100 N5        30.07R
NEWBERRY       CLEAR     40  39  97 NW3       30.08R
S. S. MARIE    PTCLDY    47  44  90 NW5       30.05R
MUNISING         N/A     45  41  86 N5        30.10R
$$
MIZ004>006-011>014-085-311100-
CENTRAL UPPER MICHIGAN

CITY           SKY/WX    TMP DP  RH WIND       PRES   REMARKS
MANISTIQUE     CLEAR     42  41  97 N5        30.08R
ESCANABA       CLOUDY    46  39  76 N5        30.08R
MENOMINEE      CLOUDY    50  45  83 NE5       30.09R
SAWYER-GWINN   PTCLDY    42  39  90 N8        30.10R
$$
MIZ001>003-009>011-084-311100-
WESTERN UPPER MICHIGAN

CITY           SKY/WX    TMP DP  RH WIND       PRES   REMARKS
IRON MOUNTAIN  CLOUDY    47  41  80 N5        30.07R
HOUGHTON       CLOUDY    44  39  82 E12       30.10R
COPPER HARBOR    N/A     43  39  86 SE5       30.13R
IRONWOOD       CLOUDY    50  46  87 E9        30.00R
$$

ABBREVIATIONS USED IN REMARKS
   TC - TEMPERATURE IN CELSIUS
  WCI - WIND CHILL INDEX
   HX - HEAT INDEX
  VSB - VISIBILITY





USA.gov is the U.S. government's official web portal to all federal, state and local government web resources and services.